CFG8EF EDDF-LEPA

Flight info

Callsign CFG8EF
Flight time N/A
Altitude FL370
Route ANEKI Y163 HERBI Y164 MOPAN LUTIX BENOT NEMOS GEVEA INCUS BALSI RETNO TUPOX MTG DIVKO VATIR N852 VERSO LUNIK
Aircraft A21N/M-SDE3FGHIRWY/LB1

Departure

Time 2026-05-08 08:50
Airport Frankfurt Main Airport (EDDF)

Arrival

Time N/A
Airport Palma de Mallorca Airport (LEPA)
Time Latitude Longitude Altitude Speed Heading
2026-05-08 08:34 50.04858 8.57523 382 ft 0 kts 205°
2026-05-08 08:40 50.04865 8.57528 381 ft 2 kts 205°
2026-05-08 08:40 50.04879 8.57538 381 ft 2 kts 205°
2026-05-08 08:40 50.04894 8.57548 381 ft 2 kts 205°
2026-05-08 08:40 50.04904 8.57556 381 ft 3 kts 203°
2026-05-08 08:41 50.04921 8.57556 381 ft 2 kts 155°
2026-05-08 08:41 50.04933 8.57539 381 ft 0 kts 117°
2026-05-08 08:41 50.04936 8.57528 381 ft 1 kts 113°
2026-05-08 08:44 50.04923 8.57575 381 ft 10 kts 113°
2026-05-08 08:44 50.04882 8.57728 382 ft 19 kts 113°
2026-05-08 08:44 50.04788 8.57922 382 ft 21 kts 162°
2026-05-08 08:44 50.04682 8.57797 383 ft 19 kts 248°
2026-05-08 08:45 50.04633 8.57569 383 ft 23 kts 250°
2026-05-08 08:45 50.04568 8.57308 383 ft 27 kts 248°
2026-05-08 08:45 50.04494 8.57000 383 ft 30 kts 250°
2026-05-08 08:45 50.04410 8.56644 383 ft 33 kts 250°
2026-05-08 08:46 50.04321 8.56266 383 ft 36 kts 251°
2026-05-08 08:46 50.04228 8.55862 383 ft 37 kts 246°
2026-05-08 08:46 50.04116 8.55438 383 ft 39 kts 251°
2026-05-08 08:46 50.04014 8.54996 383 ft 39 kts 250°
2026-05-08 08:47 50.03918 8.54580 383 ft 36 kts 249°
2026-05-08 08:47 50.03800 8.54223 383 ft 33 kts 242°
2026-05-08 08:47 50.03715 8.53877 383 ft 30 kts 250°
2026-05-08 08:47 50.03640 8.53550 383 ft 28 kts 251°
2026-05-08 08:48 50.03565 8.53245 383 ft 27 kts 250°
2026-05-08 08:48 50.03496 8.52956 383 ft 25 kts 249°
2026-05-08 08:48 50.03426 8.52690 383 ft 24 kts 250°
2026-05-08 08:48 50.03382 8.52590 383 ft 0 kts 181°
2026-05-08 08:49 50.03333 8.52589 383 ft 34 kts 181°
2026-05-08 08:50 50.02711 8.52596 383 ft 120 kts 179°
2026-05-08 08:50 50.01526 8.52593 476 ft 174 kts 180°
2026-05-08 08:50 50.00166 8.52558 1169 ft 180 kts 179°
2026-05-08 08:50 49.98786 8.52555 1988 ft 184 kts 177°
2026-05-08 08:51 49.97412 8.52611 2722 ft 187 kts 175°
2026-05-08 08:51 49.96021 8.52766 3185 ft 203 kts 175°
2026-05-08 08:51 49.94535 8.52926 3663 ft 218 kts 175°
2026-05-08 08:51 49.92881 8.53080 4074 ft 240 kts 176°
2026-05-08 08:52 49.91193 8.53215 4908 ft 241 kts 177°
2026-05-08 08:52 49.89447 8.53345 5845 ft 239 kts 177°
2026-05-08 08:52 49.87665 8.53472 6710 ft 241 kts 178°
2026-05-08 08:52 49.85957 8.53593 7484 ft 244 kts 178°
2026-05-08 08:53 49.84203 8.53717 8251 ft 247 kts 178°
2026-05-08 08:53 49.82465 8.53839 8988 ft 250 kts 179°
2026-05-08 08:53 49.80726 8.53959 9706 ft 252 kts 179°
2026-05-08 08:53 49.78970 8.54075 10409 ft 254 kts 181°
2026-05-08 08:54 49.77203 8.54016 11076 ft 257 kts 186°
2026-05-08 08:54 49.75369 8.53786 11478 ft 272 kts 187°
2026-05-08 08:54 49.73422 8.53521 11809 ft 290 kts 187°
2026-05-08 08:54 49.71349 8.53241 12117 ft 307 kts 187°
2026-05-08 08:55 49.69166 8.52948 12434 ft 323 kts 186°
2026-05-08 08:55 49.66870 8.52643 12734 ft 339 kts 186°
2026-05-08 08:55 49.64461 8.52326 13023 ft 354 kts 186°
2026-05-08 08:55 49.61939 8.51993 13293 ft 369 kts 186°
2026-05-08 08:56 49.59303 8.51648 13535 ft 383 kts 186°
2026-05-08 08:56 49.56570 8.51289 13800 ft 395 kts 187°
2026-05-08 08:56 49.53754 8.50920 14257 ft 401 kts 186°
2026-05-08 08:56 49.50904 8.50547 14824 ft 404 kts 187°
2026-05-08 08:57 49.48074 8.50176 15359 ft 407 kts 187°
2026-05-08 08:57 49.45226 8.49804 15868 ft 410 kts 187°
2026-05-08 08:57 49.42298 8.49419 16365 ft 413 kts 187°
2026-05-08 08:57 49.39259 8.49020 16858 ft 416 kts 187°
2026-05-08 08:58 49.36289 8.48631 17329 ft 419 kts 187°
2026-05-08 08:58 49.33295 8.48241 17772 ft 422 kts 187°
2026-05-08 08:58 49.30314 8.47853 18176 ft 425 kts 187°
2026-05-08 08:58 49.27307 8.47464 18598 ft 427 kts 187°
2026-05-08 08:59 49.24285 8.47072 19023 ft 430 kts 187°
2026-05-08 08:59 49.21241 8.46677 19454 ft 432 kts 187°
2026-05-08 08:59 49.17991 8.46253 19908 ft 433 kts 187°
2026-05-08 08:59 49.14749 8.45692 20338 ft 434 kts 192°
2026-05-08 09:00 49.11805 8.44644 20746 ft 434 kts 198°
2026-05-08 09:00 49.08960 8.43107 21129 ft 435 kts 204°
2026-05-08 09:00 49.06197 8.41253 21499 ft 436 kts 206°
2026-05-08 09:00 49.03249 8.39208 21881 ft 438 kts 206°
2026-05-08 09:01 49.00269 8.37140 22259 ft 440 kts 206°
2026-05-08 09:01 48.97162 8.35000 22639 ft 442 kts 205°
2026-05-08 09:01 48.93978 8.32820 23005 ft 444 kts 205°
2026-05-08 09:01 48.90820 8.30667 23359 ft 446 kts 205°
2026-05-08 09:02 48.87679 8.28531 23694 ft 448 kts 205°
2026-05-08 09:02 48.84835 8.26602 24008 ft 449 kts 205°
2026-05-08 09:02 48.81963 8.24656 24409 ft 448 kts 205°
2026-05-08 09:02 48.79090 8.22719 24860 ft 446 kts 205°
2026-05-08 09:03 48.76232 8.20799 25296 ft 444 kts 205°
2026-05-08 09:03 48.73415 8.18907 25707 ft 442 kts 205°
2026-05-08 09:03 48.70605 8.17020 26091 ft 441 kts 205°
2026-05-08 09:03 48.67796 8.15134 26453 ft 441 kts 205°
2026-05-08 09:04 48.64958 8.13231 26841 ft 440 kts 205°
2026-05-08 09:04 48.62115 8.11327 27242 ft 438 kts 205°
2026-05-08 09:04 48.59306 8.09446 27616 ft 437 kts 205°
2026-05-08 09:04 48.56507 8.07578 27980 ft 437 kts 205°
2026-05-08 09:05 48.53720 8.05719 28362 ft 436 kts 205°
2026-05-08 09:05 48.50933 8.03866 28753 ft 434 kts 205°
2026-05-08 09:05 48.48168 8.02028 29124 ft 434 kts 205°
2026-05-08 09:05 48.45408 8.00195 29497 ft 433 kts 205°
2026-05-08 09:06 48.42664 7.98373 29874 ft 432 kts 205°
2026-05-08 09:06 48.39924 7.96555 30240 ft 431 kts 205°
2026-05-08 09:06 48.37191 7.94744 30617 ft 430 kts 205°
2026-05-08 09:06 48.34470 7.92944 30984 ft 429 kts 205°
2026-05-08 09:07 48.31746 7.91144 31312 ft 429 kts 205°
2026-05-08 09:07 48.29025 7.89352 31614 ft 429 kts 205°
2026-05-08 09:07 48.26297 7.87559 31911 ft 430 kts 205°
2026-05-08 09:07 48.23572 7.85769 32228 ft 429 kts 205°
2026-05-08 09:08 48.20843 7.83977 32543 ft 429 kts 205°
2026-05-08 09:08 48.18114 7.82187 32871 ft 428 kts 205°
2026-05-08 09:08 48.15400 7.80407 33181 ft 428 kts 205°
2026-05-08 09:08 48.12682 7.78627 33493 ft 427 kts 205°
2026-05-08 09:09 48.09975 7.76857 33819 ft 426 kts 205°
2026-05-08 09:09 48.07269 7.75088 34129 ft 425 kts 205°
2026-05-08 09:09 48.04579 7.73331 34407 ft 423 kts 205°
2026-05-08 09:09 48.01894 7.71581 34673 ft 422 kts 205°
2026-05-08 09:10 47.99206 7.69831 34904 ft 422 kts 205°
2026-05-08 09:10 47.96515 7.68081 35109 ft 422 kts 205°
2026-05-08 09:10 47.93812 7.66325 35305 ft 422 kts 205°
2026-05-08 09:10 47.91128 7.64583 35481 ft 423 kts 205°
2026-05-08 09:11 47.88432 7.62835 35653 ft 424 kts 205°
2026-05-08 09:11 47.85735 7.61086 35808 ft 425 kts 205°
2026-05-08 09:11 47.83027 7.59332 35948 ft 426 kts 205°
2026-05-08 09:11 47.80313 7.57579 36103 ft 427 kts 205°
2026-05-08 09:12 47.77601 7.55829 36264 ft 427 kts 205°
2026-05-08 09:12 47.74886 7.54078 36412 ft 427 kts 205°
2026-05-08 09:12 47.72161 7.52324 36545 ft 428 kts 205°
2026-05-08 09:12 47.69439 7.50573 36674 ft 429 kts 205°
2026-05-08 09:13 47.66703 7.48815 36797 ft 430 kts 205°
2026-05-08 09:13 47.63973 7.47064 36920 ft 430 kts 206°
2026-05-08 09:13 47.58483 7.43545 37002 ft 433 kts 206°
2026-05-08 09:14 47.52969 7.40018 37007 ft 433 kts 206°
2026-05-08 09:14 47.47447 7.36496 37007 ft 433 kts 206°
2026-05-08 09:15 47.41934 7.32985 37020 ft 433 kts 205°
2026-05-08 09:15 47.36423 7.29484 37021 ft 432 kts 205°
2026-05-08 09:16 47.30919 7.25994 37026 ft 433 kts 205°
2026-05-08 09:16 47.25405 7.22506 37027 ft 433 kts 205°
2026-05-08 09:17 47.19881 7.19024 37041 ft 433 kts 205°
2026-05-08 09:17 47.14350 7.15545 37043 ft 434 kts 205°
2026-05-08 09:18 47.03475 7.08730 37031 ft 432 kts 205°
2026-05-08 09:20 46.86183 6.97949 37043 ft 433 kts 205°
2026-05-08 09:20 46.80653 6.94525 37047 ft 433 kts 205°
2026-05-08 09:21 46.75119 6.91103 37048 ft 434 kts 205°
2026-05-08 09:23 46.55739 6.79167 37056 ft 433 kts 205°
2026-05-08 09:23 46.50214 6.75780 37061 ft 432 kts 205°
2026-05-08 09:24 46.44671 6.72388 37062 ft 433 kts 205°
2026-05-08 09:24 46.39156 6.69022 37056 ft 434 kts 205°
2026-05-08 09:25 46.33618 6.65647 37055 ft 434 kts 205°
2026-05-08 09:25 46.28078 6.62280 37061 ft 434 kts 206°
2026-05-08 09:26 46.22538 6.58917 37061 ft 433 kts 205°
2026-05-08 09:26 46.17011 6.55571 37064 ft 432 kts 205°
2026-05-08 09:27 46.11476 6.52232 37056 ft 433 kts 205°
2026-05-08 09:27 46.05937 6.48905 37061 ft 432 kts 205°
2026-05-08 09:28 46.00365 6.45558 37053 ft 433 kts 206°
2026-05-08 09:28 45.94818 6.42231 37045 ft 433 kts 206°
2026-05-08 09:29 45.89281 6.38914 37042 ft 433 kts 206°
2026-05-08 09:29 45.83738 6.35602 37043 ft 433 kts 206°
2026-05-08 09:30 45.78194 6.32298 37035 ft 433 kts 205°
2026-05-08 09:30 45.72642 6.29002 37028 ft 434 kts 205°
2026-05-08 09:31 45.67084 6.25712 37033 ft 434 kts 205°
2026-05-08 09:31 45.61538 6.22429 37043 ft 434 kts 205°
2026-05-08 09:32 45.55982 6.19144 37043 ft 434 kts 205°
2026-05-08 09:32 45.50432 6.15869 37035 ft 434 kts 205°
2026-05-08 09:33 45.44870 6.12595 37029 ft 434 kts 205°
2026-05-08 09:33 45.39299 6.09329 37032 ft 435 kts 205°
2026-05-08 09:34 45.33722 6.06074 37045 ft 435 kts 206°
2026-05-08 09:34 45.28139 6.02815 37051 ft 435 kts 206°
2026-05-08 09:35 45.22556 5.99556 37042 ft 436 kts 206°
2026-05-08 09:35 45.16972 5.96307 37047 ft 435 kts 206°
2026-05-08 09:36 45.11382 5.93063 37048 ft 436 kts 206°
2026-05-08 09:36 45.05790 5.89821 37052 ft 436 kts 206°
2026-05-08 09:37 45.00194 5.86587 36828 ft 437 kts 206°
2026-05-08 09:37 44.97394 5.84970 36936 ft 438 kts 206°
2026-05-08 09:37 44.94582 5.83349 37014 ft 439 kts 206°
2026-05-08 09:38 44.88946 5.80102 37071 ft 439 kts 206°
2026-05-08 09:38 44.83327 5.76877 37073 ft 438 kts 206°
2026-05-08 09:39 44.77708 5.73654 37059 ft 438 kts 206°
2026-05-08 09:39 44.72076 5.70431 37050 ft 438 kts 207°
2026-05-08 09:40 44.66442 5.67214 37057 ft 438 kts 207°
2026-05-08 09:40 44.60817 5.64008 37046 ft 438 kts 207°
2026-05-08 09:41 44.55181 5.60801 37045 ft 438 kts 207°
2026-05-08 09:41 44.49554 5.57605 37036 ft 437 kts 207°
2026-05-08 09:42 44.43936 5.54421 37047 ft 437 kts 207°
2026-05-08 09:42 44.38312 5.51246 37043 ft 437 kts 207°
2026-05-08 09:43 44.32696 5.48089 37034 ft 437 kts 207°
2026-05-08 09:43 44.27082 5.44932 37040 ft 437 kts 208°
2026-05-08 09:44 44.21461 5.41773 37028 ft 437 kts 208°
2026-05-08 09:44 44.15855 5.38630 37019 ft 436 kts 208°
2026-05-08 09:45 44.10238 5.35486 37004 ft 436 kts 208°
2026-05-08 09:45 44.04615 5.32344 37004 ft 436 kts 207°
2026-05-08 09:46 43.99002 5.29223 37007 ft 436 kts 207°
2026-05-08 09:46 43.93385 5.26107 37011 ft 436 kts 207°
2026-05-08 09:47 43.87777 5.23005 37005 ft 434 kts 208°
2026-05-08 09:47 43.82186 5.19881 37007 ft 434 kts 208°
2026-05-08 09:48 43.76606 5.16734 37008 ft 433 kts 208°
2026-05-08 09:48 43.71041 5.13594 37010 ft 432 kts 209°
2026-05-08 09:49 43.65504 5.10475 37010 ft 431 kts 208°
2026-05-08 09:49 43.59966 5.07359 37007 ft 431 kts 209°
2026-05-08 09:50 43.54417 5.04243 37006 ft 432 kts 209°
2026-05-08 09:50 43.48858 5.01124 37005 ft 432 kts 209°
2026-05-08 09:51 43.43247 4.97991 37020 ft 430 kts 209°
2026-05-08 09:51 43.37709 4.94910 37007 ft 428 kts 209°
2026-05-08 09:52 43.32195 4.91848 37011 ft 428 kts 209°
2026-05-08 09:52 43.26691 4.88792 36980 ft 427 kts 210°
2026-05-08 09:53 43.21186 4.85737 36999 ft 427 kts 210°
2026-05-08 09:53 43.15690 4.82694 36997 ft 426 kts 210°
2026-05-08 09:54 43.10198 4.79656 37006 ft 426 kts 209°
2026-05-08 09:54 43.04729 4.76645 37005 ft 425 kts 210°
2026-05-08 09:55 42.99255 4.73641 36992 ft 425 kts 210°
2026-05-08 09:55 42.93782 4.70641 36999 ft 425 kts 210°
2026-05-08 09:56 42.88325 4.67654 36996 ft 423 kts 209°
2026-05-08 09:56 42.82859 4.64663 37000 ft 424 kts 209°
2026-05-08 09:57 42.74668 4.60193 37000 ft 423 kts 209°
2026-05-08 09:57 42.69219 4.57227 37002 ft 423 kts 209°
2026-05-08 09:58 42.63779 4.54272 36995 ft 421 kts 209°
2026-05-08 09:58 42.58340 4.51324 36999 ft 422 kts 209°
2026-05-08 09:59 42.52897 4.48374 37005 ft 421 kts 209°
2026-05-08 09:59 42.47478 4.45446 37002 ft 420 kts 209°
2026-05-08 10:00 42.42066 4.42528 36988 ft 419 kts 209°
2026-05-08 10:00 42.36656 4.39613 36999 ft 420 kts 209°
2026-05-08 10:01 42.31240 4.36700 36994 ft 419 kts 208°
2026-05-08 10:01 42.25829 4.33799 36996 ft 419 kts 208°
2026-05-08 10:02 42.20423 4.30900 36997 ft 418 kts 208°
2026-05-08 10:02 42.15026 4.28015 36997 ft 418 kts 208°
2026-05-08 10:03 42.09646 4.25149 36994 ft 418 kts 208°
2026-05-08 10:03 42.04249 4.22279 36995 ft 417 kts 208°
2026-05-08 10:04 41.98865 4.19418 36993 ft 417 kts 208°
2026-05-08 10:04 41.93493 4.16565 36991 ft 416 kts 208°
2026-05-08 10:05 41.88124 4.13721 36993 ft 415 kts 208°
2026-05-08 10:05 41.82771 4.10896 36992 ft 415 kts 208°
2026-05-08 10:06 41.77413 4.08073 36990 ft 415 kts 208°
2026-05-08 10:06 41.72055 4.05251 36993 ft 414 kts 208°
2026-05-08 10:07 41.66714 4.02441 36992 ft 413 kts 208°
2026-05-08 10:07 41.61376 3.99637 36994 ft 413 kts 207°
2026-05-08 10:08 41.56039 3.96842 36995 ft 413 kts 207°
2026-05-08 10:08 41.50706 3.94061 36993 ft 412 kts 207°
2026-05-08 10:09 41.45379 3.91286 36992 ft 412 kts 207°
2026-05-08 10:09 41.40047 3.88506 36994 ft 413 kts 207°
2026-05-08 10:10 41.34701 3.85726 36992 ft 413 kts 207°
2026-05-08 10:10 41.29358 3.82949 36992 ft 413 kts 207°
2026-05-08 10:11 41.24029 3.80184 36991 ft 412 kts 207°
2026-05-08 10:11 41.18694 3.77423 36994 ft 412 kts 207°
2026-05-08 10:12 41.13372 3.74675 36995 ft 412 kts 207°
2026-05-08 10:12 41.08064 3.71947 36994 ft 412 kts 207°
2026-05-08 10:13 41.02736 3.69208 36989 ft 411 kts 207°
2026-05-08 10:13 40.97508 3.66241 36990 ft 408 kts 210°
2026-05-08 10:14 40.92460 3.63187 36994 ft 408 kts 210°
2026-05-08 10:14 40.87322 3.60085 36988 ft 408 kts 210°
2026-05-08 10:15 40.82054 3.56923 36984 ft 408 kts 210°